Location: *
(38.4303°S, 157.0822°W)
Time: 13:15:03
(UTC+00:00)

Nadezhda 3 Rocket - Pass Details

Date: 21 May 2024
Orbit: 956 x 998 km, 82.9° (Epoch: 14 June)

Event Time Altitude Azimuth Distance (km) Brightness Sun altitude
Rises 15:01:24 0° 346° (NNW) 3,666 6.9 -28.6°
Enters shadow 15:02:55 - 345° (NNW) 3,096 6.5 -28.3°
Exits shadow 15:11:19 54° 212° (SSW) 1,172 4.1 -26.6°
Drops below altitude 10° 15:16:20 10° 179° (S) 2,728 6.3 -25.7°
Sets 15:18:53 0° 176° (S) 3,677 7.0 -25.2°
